Simultaneous Nadir Overpasses (SNOs) Predictions

Prediction of SNOs between GOES-15 and FY3D Satellite Orbit:

Table of predicted SNOs for the next 14.0 days since TLE Epoch: 7/30/2022
Index Date Time (GOES-15) GOES-15 Lat,Lon FY3D Lat,Lon Distance(km) Time Diff (sec)
1 07/30/2022 22:09:22 0.33,-128.04 1.18,-124.41 415.46 80
2 08/01/2022 10:28:59 -0.36,-128.01 0.02,-129.78 201.45 80
3 08/02/2022 10:13:14 -0.35,-127.98 -0.95,-125.31 303.58 80
4 08/03/2022 22:33:01 0.37,-127.91 -0.24,-130.73 320.57 80
5 08/04/2022 22:17:15 0.36,-127.88 0.73,-126.26 184.28 80
6 08/06/2022 10:36:53 -0.39,-127.84 0.47,-131.64 433.14 80
7 08/07/2022 10:21:07 -0.38,-127.80 -0.51,-127.17 70.78 80
8 08/09/2022 22:22:29 0.40,-127.67 0.29,-128.12 51.99 80
9 08/10/2022 22:06:44 0.40,-127.63 1.26,-123.66 451.71 80
10 08/12/2022 10:26:21 -0.42,-127.58 -0.07,-129.03 166.51 80
